Tracking 28790 objects as of 19-Apr-2024
HD Live streaming from Space Station
objects crossing your sky now

STARLINK-5289

Track STARLINK-5289 now!
10-day predictions
STARLINK-5289 is classified as:


NORAD ID: 55278
Int'l Code: 2023-010K
Perigee: 577.1 km
Apogee: 581.2 km
Inclination: 70.0 °
Period: 96.1 minutes
Semi major axis: 6950 km
RCS: Unknown
Launch date: January 19, 2023
Source: United States (US)
Launch site: AIR FORCE WESTERN TEST RANGE (AFWTR)
Your satellite tracking list
Your tracking list is empty




NASA's NSSDC Master Catalog

Two Line Element Set (TLE):
1 55278U 23010K   24109.83229918  .00000755  00000-0  71058-4 0  9993
2 55278  70.0017 343.7655 0002928 261.9978  98.0848 14.98335214 69147
Source of the keplerian elements: AFSPC